Preview of NWS' New Version of Forecast
This preview is not operational and should not be used for support decisions.

Regional Weather Roundup (RWR)

Issued by National Weather Service (NWS)

                            
000
ASUS45 KBOI 161210
RWRID 

IDAHO REGIONAL WEATHER ROUNDUP
NATIONAL WEATHER SERVICE BOISE ID
600 AM MDT MON SEP 16 2019

NOTE: "FAIR" INDICATES FEW OR NO CLOUDS BELOW 12000 FEET
WITH NO SIGNIFICANT WEATHER AND/OR OBSTRUCTIONS TO VISIBILITY

IDZ012-014-161300-
SOUTHWEST IDAHO

  
CITY           SKY/WX    TMP DP  RH WIND       PRES   REMARKS
BOISE          CLOUDY    60  42  51 W5        29.75S                  
CALDWELL       CLOUDY    57  44  62 CALM      29.75S                  
MOUNTAIN HOME  CLOUDY    60  33  36 CALM      29.74S                  
$$

IDZ016-017-161300-
SOUTHCENTRAL IDAHO

  
CITY           SKY/WX    TMP DP  RH WIND       PRES   REMARKS
BURLEY         MOCLDY    51  36  56 CALM      29.82S                  
JEROME         MOCLDY    57  34  41 S5        29.82R                  
TWIN FALLS     MOCLDY    59  31  34 SW14      29.82S                  
$$

IDZ019>023-161300-
SOUTHEAST IDAHO

  
CITY           SKY/WX    TMP DP  RH WIND       PRES   REMARKS
IDAHO FALLS    MOCLDY    59  34  39 SW12      29.86S                  
POCATELLO      PTCLDY    66  28  24 S5        29.86R                  
REXBURG        MOCLDY    63  32  31 S8        29.86S                  
$$

IDZ006-010-011-018-031-032-161300-
CENTRAL IDAHO MOUNTAINS

  
CITY           SKY/WX    TMP DP  RH WIND       PRES   REMARKS
MCCALL         CLOUDY    50  39  66 CALM      29.80S                  
HAILEY         MOCLDY    48  32  53 NW9       29.90R                  
STANLEY          N/A     39  26  59 S3        29.93S                  
SALMON         NOT AVBL                                               
CHALLIS        PTCLDY    47  31  53 SW5       29.84                   
$$

IDZ002-004-006-007-026-161300-
NORTHERN IDAHO

  
CITY           SKY/WX    TMP DP  RH WIND       PRES   REMARKS
LEWISTON       CLOUDY    60  44  55 SE5       29.77R                  
LOWELL           N/A     52  49  89 CALM      29.80S                  
COEUR D'ALENE  CLOUDY    55  45  68 W6        29.79R                  
MULLAN PASS    CLEAR     43  40  89 NW6       29.84S                  
$$